sat.trackr.live / text

‹ back to catalog

YAOGAN-30 08C

NORAD 46809 · 2020-076C

PAYLOAD ACTIVE UNKNOWN

§ Identity

Operator
Country
PRC
Launch date
2020-10-26
Launch site
XICLF
Launch vehicle
Mass (kg)
RCS (m²)

External: N2YO · Heavens-Above · Gunter

§ Orbital elements

Epoch: 2026-09-20T04:48:17.807040Z

Period
95.80 min
Inclination
34.9954°
Eccentricity
0.0006442
Mean motion
15.03058180 rev/d
Perigee alt
553.0 km
Apogee alt
561.9 km
Semi-major
6,935.6 km
B*
1.2305e-4
RAAN
231.6126°
Arg perigee
190.0871°
Mean anomaly
169.9708°
Rev number
32,244

§ Raw data

YAOGAN-30 08C1 46809U 20076C   26263.20020610  .00001663  00000+0  12305-3 0  99912 46809  34.9954 231.6126 0006442 190.0871 169.9708 15.03058180322442

JSON: /api/v1/satellites/46809 · /tle

For live sub-satellite position, see the globe view (requires WebGL).

§ Visibility from observer

Set your observer location to see the next 7 days of passes ≥ 10°. The values pass through the URL so the page stays shareable.

No JS? Fill the form by hand. The geolocation button needs JavaScript.